Location: Emporia
(38.4040°N, 96.1810°W)
Time: 16:07:54
(UTC-05:00)

ISS - Visible Passes

Search period start: 22 October 2017 00:00
Search period end: 01 November 2017 00:00
Orbit: 401 x 408 km, 51.6° (Epoch: 23 October)

Date Brightness Start Highest point End Pass type
(mag) Time Alt. Az. Time Alt. Az. Time Alt. Az.
27 Oct -0.9 07:03:00 10° S 07:05:18 18° SE 07:07:36 10° E visible
29 Oct -2.8 06:53:38 10° SSW 06:56:46 46° SE 06:59:54 10° ENE visible
30 Oct -1.5 06:02:49 15° S 06:04:29 23° SE 06:07:07 10° ENE visible
31 Oct -3.9 06:46:12 19° WSW 06:48:20 64° NW 06:51:34 10° NE visible
